Strona główna
METAR-TAF:

METAR-TAF

Lotnisko :

Tomaszów Mazowiecki, Polska

Szerokość geograficzna: 51-35-04N, Długość geograficzna: 020-05-52E, wysokość: 174 m

METAR: brakujący

czas: 12:00 (10:00 UTC)

Prognoza

Raport powstał 20 godziny i 0 minut temu, godzina 14:00 UTC
Prognoza ważna od 17 godzina 15 UTC do 17 godzina 24 UTC
Wiatr 6 kt od południowy wschód
Widzialność 10 km lub więcej
Brak chmur poniżej 1500 m i brak chmur cumulonimbus

TAF: EPTM 171400Z 1715/1724 14006KT CAVOK

Obserwacja i prognoza pogody dla ponad 4000 lotnisk (raport METAR i TAF).

Dostępne stacje oznaczono żółtymi i czerwonymi punktami na mapie.

Najedź kursorem aby zobaczyć nazwę stacji.

Kliknij aby zobaczyć obserwacje i prognozy pogody.

Aby zmienić mapę: kliknij na zielony przycisk z czarnym krzyżykiem, aby powiększyć; na zielony przycisk z myślnikiem, aby pomniejszyć; na zielone strzałki, aby przejść do map sąsiednich.


METAR-TAF: